sat.trackr.live / text

‹ back to catalog

SUPERVIEW NEO-2 02

NORAD 53130 · 2022-082C

PAYLOAD ACTIVE UNKNOWN

§ Identity

Operator
Country
PRC
Launch date
2022-07-15
Launch site
TAISC
Launch vehicle
Mass (kg)
RCS (m²)

External: N2YO · Heavens-Above · Gunter

§ Orbital elements

Epoch: 2026-05-25T03:40:40.891584Z

Period
94.46 min
Inclination
97.3929°
Eccentricity
0.0001680
Mean motion
15.24508958 rev/d
Perigee alt
491.1 km
Apogee alt
493.4 km
Semi-major
6,870.4 km
B*
1.1275e-4
RAAN
155.4656°
Arg perigee
89.3183°
Mean anomaly
270.8247°
Rev number
21,470

§ Raw data

SUPERVIEW NEO-2 021 53130U 22082C   26145.15325106  .00002701  00000+0  11275-3 0  99952 53130  97.3929 155.4656 0001680  89.3183 270.8247 15.24508958214703

JSON: /api/v1/satellites/53130 · /tle

For live sub-satellite position, see the globe view (requires WebGL).

§ Visibility from observer

Set your observer location to see the next 7 days of passes ≥ 10°. The values pass through the URL so the page stays shareable.

No JS? Fill the form by hand. The geolocation button needs JavaScript.